GW7658 Weather Reports


time (UTC)temp
C
wind
direction
speed
KPH
gust
KPH
rain 1hr
cm
rain 24hr
cm
rain mn
cm
humidity
%
barometer
mb
20260906124151 21 8 3.2 6.4 0.00 0.00 0.00 88 1019.2
20260906123631 21 22 1.6 3.2 0.00 0.00 0.00 88 1019.1
20260906123131 21 18 1.6 4.8 0.00 0.00 0.00 89 1019.2
20260906122630 21 45 1.6 4.8 0.00 0.00 0.00 90 1019.2
20260906122130 21 340 3.2 4.8 0.00 0.00 0.00 90 1019.2
20260906121630 20 271 1.6 1.6 0.00 0.00 0.00 91 1019.0
20260906121130 20 349 1.6 1.6 0.00 0.00 0.00 91 1018.8
20260906120632 20 26 1.6 1.6 0.00 0.00 0.00 93 1018.8
20260906120130 20 26 1.6 1.6 0.00 0.00 0.00 94 1018.8
20260906115630 20 322 1.6 3.2 0.00 0.00 0.00 95 1018.7
20260906115130 20 340 1.6 1.6 0.00 0.00 0.00 95 1018.5
20260906114630 20 24 1.6 1.6 0.00 0.00 0.00 95 1018.5
20260906114131 20 359 3.2 4.8 0.00 0.00 0.00 95 1018.4
20260906113630 20 338 1.6 3.2 0.00 0.00 0.00 95 1018.3
20260906113130 20 347 1.6 1.6 0.00 0.00 0.00 95 1018.2
20260906112631 20 54 1.6 1.6 0.00 0.00 0.00 95 1018.1
20260906112130 20 350 3.2 4.8 0.00 0.00 0.00 94 1018.0
20260906111724 20 266 1.6 1.6 0.00 0.00 0.00 94 1018.0
20260906111130 20 2 3.2 4.8 0.00 0.00 0.00 94 1017.9
20260906110630 20 10 3.2 4.8 0.00 0.00 0.00 94 1017.9
20260906110130 20 350 1.6 3.2 0.00 0.00 0.00 94 1017.9
20260906105631 20 341 3.2 4.8 0.00 0.00 0.00 94 1017.9
20260906105130 20 330 3.2 3.2 0.00 0.00 0.00 94 1017.8
20260906104630 20 0 1.6 3.2 0.00 0.00 0.00 94 1017.7
20260906104130 20 17 1.6 3.2 0.00 0.00 0.00 94 1017.7
20260906103630 20 16 1.6 3.2 0.00 0.00 0.00 94 1017.7
20260906103130 20 359 1.6 3.2 0.00 0.00 0.00 94 1017.5
20260906102631 20 334 1.6 3.2 0.00 0.00 0.00 94 1017.5
20260906102130 20 311 1.6 3.2 0.00 0.00 0.00 94 1017.5
20260906101630 20 16 1.6 3.2 0.00 0.00 0.00 93 1017.5
20260906101150 20 344 1.6 1.6 0.00 0.00 0.00 93 1017.6
20260906100630 20 21 3.2 4.8 0.00 0.00 0.00 93 1017.5
20260906100130 20 13 3.2 3.2 0.00 0.00 0.00 93 1017.6
20260906095630 20 333 1.6 3.2 0.00 0.00 0.00 93 1017.4
20260906095132 20 354 1.6 3.2 0.00 0.00 0.00 93 1017.4
20260906094630 20 347 3.2 3.2 0.00 0.00 0.00 93 1017.3
20260906094131 20 33 1.6 1.6 0.00 0.00 0.00 93 1017.2
20260906093630 20 341 1.6 3.2 0.00 0.00 0.00 92 1017.3
20260906093151 20 23 3.2 4.8 0.00 0.00 0.00 92 1017.3
20260906092630 20 10 3.2 3.2 0.00 0.00 0.00 92 1017.3
20260906092130 21 10 3.2 4.8 0.00 0.00 0.00 92 1017.4
20260906091650 21 339 1.6 1.6 0.00 0.00 0.00 91 1017.3
20260906091150 21 25 6.4 8.0 0.00 0.00 0.00 91 1017.2
20260906090630 21 11 3.2 4.8 0.00 0.00 0.00 91 1017.2
20260906090131 21 314 3.2 3.2 0.00 0.00 0.00 91 1017.2
20260906085630 21 11 1.6 1.6 0.00 0.00 0.00 91 1017.2
20260906085130 21 16 1.6 3.2 0.00 0.00 0.00 91 1017.2
20260906084631 21 5 1.6 4.8 0.00 0.00 0.00 91 1017.2
20260906084130 21 2 1.6 3.2 0.00 0.00 0.00 91 1017.2
20260906083630 21 355 1.6 3.2 0.00 0.00 0.00 91 1017.2
20260906083130 21 13 1.6 3.2 0.00 0.00 0.00 91 1017.1
20260906082630 21 20 1.6 1.6 0.00 0.00 0.00 91 1017.2
20260906082130 21 39 3.2 4.8 0.00 0.00 0.00 91 1017.2
20260906081630 21 2 3.2 3.2 0.00 0.00 0.00 91 1017.2
20260906081130 21 322 1.6 3.2 0.00 0.00 0.00 90 1017.2
20260906080630 21 66 1.6 3.2 0.00 0.00 0.00 90 1017.2
20260906080152 21 357 1.6 3.2 0.00 0.00 0.00 90 1017.3
20260906075630 21 353 1.6 1.6 0.00 0.00 0.00 90 1017.3
20260906075130 21 30 3.2 3.2 0.00 0.00 0.00 90 1017.4
20260906074630 21 54 3.2 3.2 0.00 0.00 0.00 89 1017.4
20260906074130 21 37 4.8 6.4 0.00 0.00 0.00 89 1017.4
20260906073630 21 344 1.6 1.6 0.00 0.00 0.00 89 1017.4
20260906073130 21 22 3.2 4.8 0.00 0.00 0.00 89 1017.4
20260906072630 21 60 1.6 3.2 0.00 0.00 0.00 89 1017.4
20260906072131 21 32 4.8 4.8 0.00 0.00 0.00 88 1017.5
20260906071630 21 33 3.2 3.2 0.00 0.00 0.00 88 1017.5
20260906071130 21 54 1.6 1.6 0.00 0.00 0.00 88 1017.5
20260906070630 21 42 3.2 3.2 0.00 0.00 0.00 87 1017.5
20260906070131 22 337 1.6 3.2 0.00 0.00 0.00 87 1017.5
20260906065630 22 330 1.6 3.2 0.00 0.00 0.00 87 1017.6
20260906065130 22 7 1.6 1.6 0.00 0.00 0.00 86 1017.6
20260906064630 22 14 4.8 4.8 0.00 0.00 0.00 86 1017.5
20260906064130 22 62 1.6 1.6 0.00 0.00 0.00 86 1017.6
20260906063652 22 66 1.6 1.6 0.00 0.00 0.00 86 1017.5
20260906063150 22 17 4.8 6.4 0.00 0.00 0.00 85 1017.5
20260906062650 22 340 1.6 3.2 0.00 0.00 0.00 85 1017.5
20260906062130 22 20 4.8 6.4 0.00 0.00 0.00 85 1017.6
20260906061630 22 356 3.2 3.2 0.00 0.00 0.00 85 1017.6
20260906061130 22 2 1.6 3.2 0.00 0.00 0.00 85 1017.7
20260906060630 22 339 1.6 1.6 0.00 0.00 0.00 85 1017.6
20260906060130 22 47 3.2 6.4 0.00 0.00 0.00 85 1017.6
20260906055630 22 257 1.6 3.2 0.00 0.00 0.00 85 1017.5
20260906055130 22 11 1.6 3.2 0.00 0.00 0.00 85 1017.4
20260906054631 22 286 1.6 3.2 0.00 0.00 0.00 85 1017.4
20260906054130 22 3 3.2 8.0 0.00 0.00 0.00 85 1017.3
20260906053630 22 43 3.2 4.8 0.00 0.00 0.00 85 1017.3
20260906053130 22 38 1.6 4.8 0.00 0.00 0.00 85 1017.3
20260906052630 22 17 1.6 3.2 0.00 0.00 0.00 84 1017.3
20260906052130 22 299 1.6 3.2 0.00 0.00 0.00 84 1017.3
20260906051630 22 45 3.2 4.8 0.00 0.00 0.00 84 1017.2
20260906051130 22 357 3.2 4.8 0.00 0.00 0.00 84 1017.2
20260906050630 22 96 1.6 3.2 0.00 0.00 0.00 84 1017.2
20260906050130 22 124 3.2 6.4 0.00 0.00 0.00 84 1017.1
20260906045630 22 73 4.8 8.0 0.00 0.00 0.00 83 1017.1
20260906045130 22 5 1.6 4.8 0.00 0.00 0.00 83 1017.1
20260906044631 22 32 1.6 4.8 0.00 0.00 0.00 82 1017.1
20260906044152 22 29 3.2 8.0 0.00 0.00 0.00 82 1017.1
20260906043630 22 328 1.6 3.2 0.00 0.00 0.00 82 1016.9
20260906043130 22 343 1.6 4.8 0.00 0.00 0.00 82 1016.8
20260906042630 22 317 1.6 1.6 0.00 0.00 0.00 81 1016.8
20260906042130 22 40 3.2 6.4 0.00 0.00 0.00 81 1016.7
20260906041631 23 33 4.8 8.0 0.00 0.00 0.00 81 1016.6
20260906041210 23 40 1.6 4.8 0.00 0.00 0.00 81 1016.6
20260906040630 23 352 3.2 4.8 0.00 0.00 0.00 81 1016.6
20260906040130 23 356 1.6 3.2 0.00 0.00 0.00 81 1016.5
20260906035630 23 59 4.8 11.3 0.00 0.00 0.00 80 1016.4
20260906035130 23 27 3.2 6.4 0.00 0.00 0.00 80 1016.3
20260906034630 23 81 4.8 11.3 0.00 0.00 0.00 80 1016.3
20260906034130 22 98 6.4 12.9 0.00 0.00 0.00 80 1016.3
20260906033630 22 103 9.7 14.5 0.00 0.00 0.00 80 1016.3
20260906033131 22 98 8.0 14.5 0.00 0.00 0.00 81 1016.4
20260906032711 22 90 4.8 8.0 0.00 0.00 0.00 81 1016.4
20260906032130 22 85 3.2 9.7 0.00 0.00 0.00 81 1016.3
20260906031630 22 88 4.8 8.0 0.00 0.00 0.00 81 1016.3
20260906031130 22 75 4.8 8.0 0.00 0.00 0.00 81 1016.3
20260906030630 22 99 6.4 12.9 0.00 0.00 0.00 81 1016.3
20260906030131 22 117 6.4 9.7 0.00 0.00 0.00 81 1016.3
20260906025630 22 52 4.8 11.3 0.00 0.00 0.00 81 1016.3
20260906025150 22 11 4.8 8.0 0.00 0.00 0.00 81 1016.3
20260906024650 22 33 4.8 8.0 0.00 0.00 0.00 81 1016.4
20260906024130 22 74 6.4 12.9 0.00 0.00 0.00 81 1016.4
20260906023630 22 18 3.2 4.8 0.00 0.00 0.00 81 1016.3
20260906023130 22 21 1.6 4.8 0.00 0.00 0.00 81 1016.3
20260906022631 22 40 6.4 12.9 0.00 0.00 0.00 81 1016.3
20260906022130 22 59 8.0 12.9 0.00 0.00 0.00 82 1016.3
20260906021630 22 43 4.8 11.3 0.00 0.00 0.00 82 1016.4
20260906021130 22 23 3.2 8.0 0.00 0.00 0.00 82 1016.3
20260906020630 22 59 9.7 17.7 0.00 0.00 0.00 82 1016.3
20260906020130 22 35 1.6 4.8 0.00 0.00 0.00 81 1016.3
20260906015630 22 28 3.2 4.8 0.00 0.00 0.00 81 1016.2
20260906015151 22 66 6.4 12.9 0.00 0.00 0.00 81 1016.2
20260906014630 22 0 4.8 14.5 0.00 0.00 0.00 81 1016.3
20260906014130 22 16 4.8 9.7 0.00 0.00 0.00 81 1016.3
20260906013630 22 325 4.8 8.0 0.00 0.00 0.00 81 1016.4
20260906013130 22 3 4.8 8.0 0.00 0.00 0.00 80 1016.2
20260906012630 22 35 3.2 6.4 0.00 0.00 0.00 81 1016.2
20260906012130 22 353 6.4 8.0 0.00 0.00 0.00 81 1016.2
20260906011630 22 24 4.8 6.4 0.00 0.00 0.00 81 1016.2
20260906011130 22 34 6.4 8.0 0.00 0.00 0.00 82 1016.2
20260906010630 22 1 3.2 6.4 0.00 0.00 0.00 82 1016.3
20260906010130 22 339 6.4 11.3 0.00 0.00 0.00 82 1016.3
20260906005650 23 52 4.8 11.3 0.00 0.00 0.00 82 1016.3
20260906005130 23 41 3.2 6.4 0.00 0.00 0.00 81 1016.3
20260906004630 23 104 4.8 11.3 0.00 0.00 0.00 81 1016.2
20260906004150 23 62 8.0 14.5 0.00 0.00 0.00 80 1016.1
20260906003630 23 348 4.8 8.0 0.00 0.00 0.00 80 1016.1
20260906003150 24 3 4.8 8.0 0.00 0.00 0.00 79 1016.1
20260906002630 24 353 1.6 3.2 0.00 0.00 0.00 79 1015.9
20260906002130 24 41 8.0 12.9 0.00 0.00 0.00 78 1015.8
20260906001630 25 7 3.2 6.4 0.00 0.00 0.00 78 1015.8
20260906001130 25 44 6.4 14.5 0.00 0.00 0.00 78 1015.6
20260906000630 25 19 6.4 11.3 0.00 0.00 0.00 77 1015.5
20260906000150 25 45 3.2 6.4 0.00 0.00 0.00 77 1015.4
20260905235630 25 71 1.6 6.4 0.00 0.00 0.00 76 1015.2
20260905235130 25 38 4.8 9.7 0.00 0.00 0.00 76 1015.0
20260905234632 26 81 4.8 11.3 0.00 0.00 0.00 76 1015.0
20260905234130 26 104 11.3 17.7 0.00 0.00 0.00 74 1015.0
20260905233630 26 63 4.8 8.0 0.00 0.00 0.00 73 1015.0
20260905233130 26 53 3.2 6.4 0.00 0.00 0.00 73 1015.0
20260905232630 26 27 8.0 12.9 0.00 0.00 0.00 72 1015.1
20260905232130 27 33 3.2 6.4 0.00 0.00 0.00 72 1015.1
20260905231650 27 43 1.6 3.2 0.00 0.00 0.00 71 1015.1
20260905231130 27 25 3.2 4.8 0.00 0.00 0.00 70 1015.0
20260905230630 27 12 3.2 11.3 0.00 0.00 0.00 69 1014.9
20260905230130 27 29 4.8 6.4 0.00 0.00 0.00 68 1014.8
20260905225630 27 20 4.8 6.4 0.00 0.00 0.00 68 1014.8
20260905225130 28 350 4.8 8.0 0.00 0.00 0.00 66 1014.7
20260905224630 28 343 3.2 4.8 0.00 0.00 0.00 67 1014.7
20260905224130 28 74 4.8 8.0 0.00 0.00 0.00 67 1014.6
20260905223630 27 62 3.2 6.4 0.00 0.00 0.00 66 1014.5
20260905223150 27 3 1.6 3.2 0.00 0.00 0.00 67 1014.6
20260905222630 28 48 4.8 9.7 0.00 0.00 0.00 67 1014.6
20260905222130 28 27 3.2 6.4 0.00 0.00 0.00 66 1014.6
20260905221630 28 42 8.0 12.9 0.00 0.00 0.00 66 1014.6
20260905221150 28 18 4.8 8.0 0.00 0.00 0.00 66 1014.6
20260905220650 28 53 4.8 12.9 0.00 0.00 0.00 68 1014.5
20260905220130 28 125 6.4 8.0 0.00 0.00 0.00 68 1014.5
20260905215630 28 66 4.8 9.7 0.00 0.00 0.00 69 1014.5
20260905215130 28 13 3.2 6.4 0.00 0.00 0.00 68 1014.5
20260905214630 28 52 3.2 4.8 0.00 0.00 0.00 68 1014.6
20260905214130 28 343 3.2 8.0 0.00 0.00 0.00 68 1014.6
20260905213630 28 5 4.8 8.0 0.00 0.00 0.00 68 1014.8
20260905213130 27 328 3.2 6.4 0.00 0.00 0.00 70 1014.7
20260905212630 27 359 4.8 8.0 0.00 0.00 0.00 71 1014.6
20260905212130 27 106 3.2 4.8 0.00 0.00 0.00 72 1014.7
20260905211630 27 53 4.8 8.0 0.00 0.00 0.00 72 1014.7
20260905211130 27 9 4.8 8.0 0.00 0.00 0.00 70 1014.7
20260905210630 27 26 11.3 14.5 0.00 0.00 0.00 70 1014.6
20260905210130 27 27 4.8 6.4 0.00 0.00 0.00 70 1014.7
20260905205630 27 72 3.2 6.4 0.00 0.00 0.00 71 1014.8
20260905205130 27 23 3.2 8.0 0.00 0.00 0.00 71 1014.9
20260905204631 27 57 6.4 12.9 0.00 0.00 0.00 72 1014.9
20260905204150 27 40 3.2 6.4 0.00 0.00 0.00 72 1015.0
20260905203650 27 35 6.4 9.7 0.00 0.00 0.00 73 1015.0
20260905203150 27 27 4.8 9.7 0.00 0.00 0.00 71 1015.1
20260905202630 28 45 9.7 14.5 0.00 0.00 0.00 70 1015.0
20260905202130 28 6 4.8 12.9 0.00 0.00 0.00 71 1015.0
20260905201630 28 40 4.8 9.7 0.00 0.00 0.00 70 1015.0
20260905201130 28 4 4.8 9.7 0.00 0.00 0.00 70 1015.0
20260905200631 28 6 4.8 9.7 0.00 0.00 0.00 70 1015.0
20260905200130 28 322 6.4 9.7 0.00 0.00 0.00 71 1014.9
20260905195630 28 40 6.4 11.3 0.00 0.00 0.00 71 1015.0
20260905195130 28 6 4.8 8.0 0.00 0.00 0.00 71 1014.9
20260905194630 28 28 4.8 9.7 0.00 0.00 0.00 71 1014.9
20260905194130 28 68 4.8 9.7 0.00 0.00 0.00 70 1014.8
20260905193630 28 36 3.2 4.8 0.00 0.00 0.00 68 1014.8
20260905193130 29 6 3.2 4.8 0.00 0.00 0.00 67 1014.8
20260905192650 29 13 6.4 9.7 0.00 0.00 0.00 66 1014.7
20260905192130 29 354 3.2 8.0 0.00 0.00 0.00 67 1014.8
20260905191630 29 26 6.4 12.9 0.00 0.00 0.00 67 1014.8
20260905191131 29 24 6.4 9.7 0.00 0.00 0.00 68 1014.8
20260905190630 29 24 3.2 6.4 0.00 0.00 0.00 68 1014.8
20260905190130 29 31 6.4 14.5 0.00 0.00 0.00 68 1014.8
20260905185630 29 17 4.8 6.4 0.00 0.00 0.00 69 1014.8
20260905185150 30 40 6.4 9.7 0.00 0.00 0.00 68 1014.8
20260905184630 30 51 3.2 9.7 0.00 0.00 0.00 68 1014.8
20260905184151 30 56 8.0 14.5 0.00 0.00 0.00 67 1014.9
20260905183630 29 47 6.4 9.7 0.00 0.00 0.00 68 1014.9
20260905183130 29 47 8.0 12.9 0.00 0.00 0.00 69 1015.0
20260905182630 29 348 3.2 6.4 0.00 0.00 0.00 69 1014.9
20260905182151 30 318 3.2 6.4 0.00 0.00 0.00 68 1014.9
20260905181710 30 358 3.2 6.4 0.00 0.00 0.00 67 1014.9
20260905181130 30 310 3.2 4.8 0.00 0.00 0.00 66 1014.9
20260905180630 30 313 3.2 6.4 0.00 0.00 0.00 67 1014.9
20260905180130 30 340 4.8 8.0 0.00 0.00 0.00 67 1014.9
20260905175630 29 343 3.2 6.4 0.00 0.00 0.00 68 1014.9
20260905175130 30 38 4.8 11.3 0.00 0.00 0.00 68 1014.8
20260905174630 30 59 3.2 4.8 0.00 0.00 0.00 68 1014.8
20260905174150 29 80 4.8 6.4 0.00 0.00 0.00 69 1014.8
20260905173630 29 20 3.2 4.8 0.00 0.00 0.00 70 1014.9
20260905173130 30 104 6.4 8.0 0.00 0.00 0.00 69 1014.8
20260905172630 30 27 3.2 6.4 0.00 0.00 0.00 66 1014.9
20260905172132 30 324 6.4 9.7 0.00 0.00 0.00 68 1014.8
20260905171630 29 33 4.8 9.7 0.00 0.00 0.00 70 1014.9
20260905171130 29 106 3.2 4.8 0.00 0.00 0.00 70 1014.9
20260905170630 29 47 4.8 8.0 0.00 0.00 0.00 70 1015.0
20260905170130 29 343 4.8 8.0 0.00 0.00 0.00 70 1015.0
20260905165630 29 59 3.2 9.7 0.00 0.00 0.00 71 1015.1
20260905165213 29 48 4.8 6.4 0.00 0.00 0.00 70 1015.0
20260905164630 29 347 4.8 8.0 0.00 0.00 0.00 71 1015.1
20260905164130 29 345 4.8 8.0 0.00 0.00 0.00 70 1015.2
20260905163131 29 89 3.2 4.8 0.00 0.00 0.00 71 1015.2
20260905162630 29 48 6.4 9.7 0.00 0.00 0.00 71 1015.2
20260905162130 28 20 3.2 6.4 0.00 0.00 0.00 72 1015.1
20260905161630 28 83 4.8 9.7 0.00 0.00 0.00 73 1015.1
20260905161130 28 63 4.8 6.4 0.00 0.00 0.00 71 1015.1
20260905160630 28 89 4.8 6.4 0.00 0.00 0.00 73 1015.2
20260905160132 28 23 3.2 4.8 0.00 0.00 0.00 73 1015.2
20260905155630 28 338 3.2 4.8 0.00 0.00 0.00 74 1015.2
20260905155130 28 20 3.2 4.8 0.00 0.00 0.00 74 1015.1
20260905154651 27 309 4.8 8.0 0.00 0.00 0.00 75 1015.1
20260905154130 27 335 3.2 9.7 0.00 0.00 0.00 75 1015.1
20260905153630 27 46 4.8 11.3 0.00 0.00 0.00 76 1015.1
20260905153130 27 325 3.2 4.8 0.00 0.00 0.00 77 1015.0
20260905152630 27 334 4.8 8.0 0.00 0.00 0.00 77 1015.0
20260905152130 27 0 4.8 8.0 0.00 0.00 0.00 78 1014.9
20260905151630 26 70 3.2 6.4 0.00 0.00 0.00 78 1014.9
20260905151130 26 34 4.8 8.0 0.00 0.00 0.00 79 1015.0
20260905150630 26 348 4.8 9.7 0.00 0.00 0.00 81 1014.9
20260905150152 25 27 3.2 4.8 0.00 0.00 0.00 83 1014.9
20260905145630 25 320 4.8 8.0 0.00 0.00 0.00 84 1014.8
20260905145130 25 334 3.2 6.4 0.00 0.00 0.00 84 1014.8
20260905144650 25 339 3.2 4.8 0.00 0.00 0.00 85 1014.7
20260905144130 25 44 4.8 6.4 0.00 0.00 0.00 84 1014.6
20260905143630 25 309 3.2 6.4 0.00 0.00 0.00 85 1014.7
20260905143130 25 331 4.8 9.7 0.00 0.00 0.00 85 1014.7
20260905142630 25 36 3.2 4.8 0.00 0.00 0.00 86 1014.7
20260905142130 25 268 1.6 3.2 0.00 0.00 0.00 86 1014.7
20260905141630 25 349 4.8 9.7 0.00 0.00 0.00 86 1014.7
20260905141130 26 29 3.2 4.8 0.00 0.00 0.00 85 1014.5
20260905140630 26 31 4.8 9.7 0.00 0.00 0.00 84 1014.5
20260905140130 26 7 4.8 9.7 0.00 0.00 0.00 84 1014.4
20260905135650 26 26 4.8 8.0 0.00 0.00 0.00 83 1014.3
20260905135130 27 0 3.2 4.8 0.00 0.00 0.00 81 1014.2
20260905134630 26 325 3.2 3.2 0.00 0.00 0.00 82 1014.2
20260905134130 26 48 3.2 4.8 0.00 0.00 0.00 83 1014.2
20260905133630 26 32 6.4 8.0 0.00 0.00 0.00 82 1014.2
20260905133150 26 48 3.2 4.8 0.00 0.00 0.00 82 1014.2
20260905132651 26 43 4.8 8.0 0.00 0.00 0.00 82 1014.3
20260905132130 26 8 1.6 4.8 0.00 0.00 0.00 83 1014.5
20260905131650 26 358 1.6 3.2 0.00 0.00 0.00 83 1014.7
20260905131130 26 16 3.2 4.8 0.00 0.00 0.00 84 1014.6
20260905130651 26 360 3.2 6.4 0.00 0.00 0.00 85 1014.3
20260905130130 26 317 3.2 8.0 0.00 0.00 0.00 85 1014.1
20260905125650 26 341 3.2 8.0 0.00 0.00 0.00 85 1014.0
20260905125130 26 336 1.6 3.2 0.00 0.00 0.00 86 1014.0
20260905124631 26 344 1.6 6.4 0.00 0.00 0.00 86 1013.9